| time (UTC) | temp F | wind direction | speed MPH | gust MPH | rain 1hr in | rain 24hr in | rain mn in | humidity % | barometer mb |
| 20260508133203 | 71 | 259 | 10.0 | 15.0 | 0.00 | 0.00 | 0.00 | 41 | 1010.8 |
| 20260508130704 | 70 | 166 | 4.0 | 20.0 | 0.00 | 0.00 | 0.00 | 42 | 1010.9 |
| 20260508130204 | 70 | 239 | 2.0 | 17.0 | 0.00 | 0.00 | 0.00 | 43 | 1011.0 |
| 20260508123703 | 70 | 175 | 5.0 | 12.0 | 0.00 | 0.00 | 0.00 | 43 | 1011.3 |
| 20260508123204 | 70 | 256 | 5.0 | 14.0 | 0.00 | 0.00 | 0.00 | 43 | 1011.2 |
| 20260508120703 | 69 | 226 | 1.0 | 9.0 | 0.00 | 0.00 | 0.00 | 46 | 1011.6 |
| 20260508120204 | 69 | 253 | 7.0 | 14.0 | 0.00 | 0.00 | 0.00 | 46 | 1011.6 |
| 20260508113703 | 68 | 155 | 3.0 | 8.0 | 0.00 | 0.00 | 0.00 | 45 | 1011.6 |
| 20260508113204 | 69 | 234 | 2.0 | 12.0 | 0.00 | 0.00 | 0.00 | 46 | 1011.7 |
| 20260508110703 | 69 | 205 | 4.0 | 10.0 | 0.00 | 0.00 | 0.00 | 45 | 1011.8 |
| 20260508110203 | 69 | 213 | 2.0 | 9.0 | 0.00 | 0.00 | 0.00 | 45 | 1011.9 |
| 20260508103704 | 67 | 231 | 4.0 | 9.0 | 0.00 | 0.00 | 0.00 | 47 | 1012.0 |
| 20260508103203 | 67 | 209 | 1.0 | 12.0 | 0.00 | 0.00 | 0.00 | 48 | 1011.9 |
| 20260508100203 | 66 | 239 | 4.0 | 12.0 | 0.00 | 0.00 | 0.00 | 48 | 1012.2 |
| 20260508093703 | 65 | 260 | 6.0 | 12.0 | 0.00 | 0.00 | 0.00 | 47 | 1012.4 |
| 20260508093203 | 65 | 232 | 3.0 | 13.0 | 0.00 | 0.00 | 0.00 | 55 | 1012.4 |
| 20260508090204 | 64 | 238 | 5.0 | 12.0 | 0.00 | 0.00 | 0.00 | 58 | 1012.5 |
| 20260508083704 | 63 | 251 | 5.0 | 10.0 | 0.00 | 0.00 | 0.00 | 62 | 1012.4 |
| 20260508083204 | 63 | 243 | 5.0 | 13.0 | 0.00 | 0.00 | 0.00 | 64 | 1012.3 |
| 20260508080203 | 62 | 237 | 2.0 | 9.0 | 0.00 | 0.00 | 0.00 | 68 | 1012.2 |
| 20260508073704 | 60 | 233 | 1.0 | 3.0 | 0.00 | 0.00 | 0.00 | 72 | 1012.1 |
| 20260508073203 | 60 | 253 | 0.0 | 3.0 | 0.00 | 0.00 | 0.00 | 72 | 1011.9 |
| 20260508070704 | 59 | 217 | 0.0 | 1.0 | 0.00 | 0.00 | 0.00 | 73 | 1011.8 |
| 20260508070204 | 59 | 217 | 0.0 | 3.0 | 0.00 | 0.00 | 0.00 | 73 | 1011.8 |
| 20260508063704 | 58 | 219 | 0.0 | 2.0 | 0.00 | 0.00 | 0.00 | 76 | 1011.7 |
| 20260508060703 | 57 | 228 | 0.0 | 1.0 | 0.00 | 0.00 | 0.00 | 77 | 1011.6 |
| 20260508060204 | 57 | 229 | 0.0 | 5.0 | 0.00 | 0.00 | 0.00 | 77 | 1011.6 |
| 20260508053703 | 56 | 228 | 1.0 | 3.0 | 0.00 | 0.00 | 0.00 | 78 | 1011.4 |
| 20260508053204 | 56 | 228 | 1.0 | 3.0 | 0.00 | 0.00 | 0.00 | 78 | 1011.3 |
| 20260508050203 | 57 | 228 | 0.0 | 6.0 | 0.00 | 0.00 | 0.00 | 76 | 1010.8 |
| 20260508043704 | 58 | 216 | 2.0 | 3.0 | 0.00 | 0.00 | 0.00 | 75 | 1010.6 |
| 20260508043204 | 58 | 216 | 0.0 | 6.0 | 0.00 | 0.00 | 0.00 | 75 | 1010.6 |
| 20260508040204 | 58 | 207 | 2.0 | 7.0 | 0.00 | 0.00 | 0.00 | 75 | 1010.7 |
| 20260508033203 | 58 | 166 | 1.0 | 6.0 | 0.00 | 0.00 | 0.00 | 75 | 1010.6 |
| 20260508030704 | 58 | 193 | 2.0 | 8.0 | 0.00 | 0.00 | 0.00 | 74 | 1010.8 |
| 20260508030203 | 58 | 188 | 3.0 | 7.0 | 0.00 | 0.00 | 0.00 | 74 | 1010.9 |
| 20260508023204 | 58 | 184 | 3.0 | 9.0 | 0.00 | 0.00 | 0.00 | 74 | 1010.9 |
| 20260508020704 | 58 | 160 | 1.0 | 6.0 | 0.00 | 0.00 | 0.00 | 74 | 1010.9 |
| 20260508020203 | 58 | 186 | 1.0 | 7.0 | 0.00 | 0.00 | 0.00 | 74 | 1011.0 |
| 20260508013704 | 59 | 185 | 3.0 | 7.0 | 0.00 | 0.00 | 0.00 | 74 | 1011.2 |
| 20260508013204 | 59 | 200 | 2.0 | 6.0 | 0.00 | 0.00 | 0.00 | 74 | 1011.2 |
| 20260508010204 | 59 | 181 | 2.0 | 7.0 | 0.00 | 0.00 | 0.00 | 74 | 1011.2 |
| 20260508003704 | 59 | 227 | 1.0 | 3.0 | 0.00 | 0.00 | 0.00 | 74 | 1011.5 |
| 20260508000704 | 60 | 211 | 2.0 | 6.0 | 0.00 | 0.00 | 0.00 | 72 | 1011.4 |
| 20260508000205 | 60 | 224 | 1.0 | 8.0 | 0.00 | 0.00 | 0.00 | 72 | 1011.4 |
| 20260507233704 | 60 | 217 | 1.0 | 5.0 | 0.00 | 0.00 | 0.00 | 71 | 1011.6 |
| 20260507233204 | 60 | 187 | 2.0 | 7.0 | 0.00 | 0.00 | 0.00 | 71 | 1011.5 |
| 20260507230704 | 60 | 238 | 1.0 | 3.0 | 0.00 | 0.00 | 0.00 | 71 | 1011.7 |
| 20260507230203 | 60 | 221 | 0.0 | 5.0 | 0.00 | 0.00 | 0.00 | 71 | 1011.8 |
| 20260507223704 | 60 | 216 | 1.0 | 3.0 | 0.00 | 0.00 | 0.00 | 70 | 1012.0 |
| 20260507223204 | 60 | 176 | 1.0 | 9.0 | 0.00 | 0.00 | 0.00 | 70 | 1012.1 |
| 20260507220204 | 61 | 239 | 0.0 | 3.0 | 0.00 | 0.00 | 0.00 | 66 | 1012.1 |
| 20260507213704 | 61 | 244 | 0.0 | 5.0 | 0.00 | 0.00 | 0.00 | 64 | 1012.0 |
| 20260507213204 | 61 | 244 | 0.0 | 6.0 | 0.00 | 0.00 | 0.00 | 63 | 1012.1 |
| 20260507210704 | 61 | 260 | 2.0 | 6.0 | 0.00 | 0.00 | 0.00 | 62 | 1011.9 |
| 20260507203704 | 61 | 296 | 2.0 | 8.0 | 0.00 | 0.00 | 0.00 | 61 | 1011.5 |
| 20260507203204 | 62 | 281 | 0.0 | 7.0 | 0.00 | 0.00 | 0.00 | 61 | 1011.5 |
| 20260507200704 | 62 | 261 | 4.0 | 9.0 | 0.00 | 0.00 | 0.00 | 60 | 1011.6 |
| 20260507200204 | 62 | 262 | 5.0 | 12.0 | 0.00 | 0.00 | 0.00 | 61 | 1011.6 |
| 20260507193204 | 63 | 264 | 3.0 | 12.0 | 0.00 | 0.00 | 0.00 | 60 | 1011.4 |
| 20260507190705 | 64 | 249 | 5.0 | 10.0 | 0.00 | 0.00 | 0.00 | 57 | 1011.1 |
| 20260507190204 | 64 | 258 | 7.0 | 17.0 | 0.00 | 0.00 | 0.00 | 57 | 1011.0 |
| 20260507183704 | 66 | 248 | 7.0 | 15.0 | 0.00 | 0.00 | 0.00 | 53 | 1010.7 |
| 20260507183204 | 66 | 260 | 5.0 | 17.0 | 0.00 | 0.00 | 0.00 | 52 | 1010.6 |
| 20260507180704 | 67 | 253 | 9.0 | 15.0 | 0.00 | 0.00 | 0.00 | 50 | 1010.2 |
| 20260507180204 | 68 | 252 | 9.0 | 18.0 | 0.00 | 0.00 | 0.00 | 49 | 1010.2 |
| 20260507173704 | 69 | 258 | 9.0 | 17.0 | 0.00 | 0.00 | 0.00 | 48 | 1009.9 |
| 20260507173204 | 69 | 249 | 5.0 | 18.0 | 0.00 | 0.00 | 0.00 | 49 | 1009.9 |
| 20260507170704 | 70 | 242 | 8.0 | 13.0 | 0.00 | 0.00 | 0.00 | 45 | 1009.7 |
| 20260507170204 | 70 | 263 | 8.0 | 15.0 | 0.00 | 0.00 | 0.00 | 45 | 1009.6 |
| 20260507163704 | 71 | 268 | 5.0 | 15.0 | 0.00 | 0.00 | 0.00 | 41 | 1009.4 |
| 20260507160704 | 72 | 234 | 6.0 | 20.0 | 0.00 | 0.00 | 0.00 | 43 | 1009.3 |
| 20260507160205 | 73 | 247 | 5.0 | 16.0 | 0.00 | 0.00 | 0.00 | 42 | 1009.3 |
| 20260507153204 | 72 | 238 | 3.0 | 17.0 | 0.00 | 0.00 | 0.00 | 38 | 1009.3 |
| 20260507150704 | 72 | 230 | 3.0 | 13.0 | 0.00 | 0.00 | 0.00 | 41 | 1009.4 |
| 20260507150204 | 72 | 243 | 3.0 | 15.0 | 0.00 | 0.00 | 0.00 | 37 | 1009.4 |
| 20260507143704 | 72 | 236 | 3.0 | 13.0 | 0.00 | 0.00 | 0.00 | 41 | 1009.6 |
| 20260507140704 | 71 | 230 | 4.0 | 13.0 | 0.00 | 0.00 | 0.00 | 47 | 1009.9 |